EW1940 Weather Reports


Display with metric or nautical units.
time (UTC)temp
F
wind
direction
speed
MPH
gust
MPH
rain 1hr
in
rain 24hr
in
rain mn
in
humidity
%
barometer
mb
20260508093015 56 113 7.0 13.0 0.00 0.02 0.02 88 1016.3
20260508092019 56 135 5.0 10.0 0.00 0.02 0.02 88 1016.3
20260508091017 55 113 4.0 9.0 0.00 0.02 0.02 88 1016.3
20260508090017 55 135 4.0 7.0 0.00 0.02 0.02 89 1016.3
20260508085017 55 113 6.0 11.0 0.00 0.02 0.02 90 1016.3
20260508084017 55 135 5.0 9.0 0.00 0.02 0.02 91 1016.3
20260508083037 55 135 4.0 9.0 0.01 0.02 0.02 92 1016.3
20260508082017 54 68 1.0 3.0 0.01 0.02 0.02 92 1016.2
20260508081017 54 113 2.0 4.0 0.02 0.02 0.02 91 1016.2
20260508080017 54 90 2.0 6.0 0.02 0.02 0.02 91 1016.0
20260508075020 54 45 3.0 8.0 0.02 0.02 0.02 91 1015.8
20260508074037 54 23 1.0 3.0 0.02 0.02 0.02 91 1016.0
20260508073017 54 113 1.0 3.0 0.01 0.01 0.01 91 1016.0
20260508072017 53 0.0 2.0 0.01 0.01 0.01 91 1015.9
20260508071019 53 90 2.0 4.0 0.00 0.00 0.00 91 1015.9
20260508070017 53 90 2.0 4.0 0.00 0.00 0.00 90 1015.9
20260508065017 53 90 2.0 5.0 0.00 0.00 0.00 90 1015.8
20260508064017 53 90 2.0 4.0 0.00 0.00 0.00 91 1015.7
20260508063017 53 113 3.0 5.0 0.00 0.00 0.00 91 1015.6
20260508062017 52 113 3.0 8.0 0.00 0.00 0.00 91 1015.6
20260508061059 52 113 2.0 5.0 0.00 0.00 0.00 91 1015.6
20260508060017 52 90 2.0 6.0 0.00 0.00 0.00 91 1015.6
20260508055017 52 90 2.0 4.0 0.00 0.00 0.00 91 1015.5
20260508054037 52 90 2.0 4.0 0.00 0.00 0.00 91 1015.5
20260508053019 52 90 2.0 5.0 0.00 0.00 0.00 91 1015.4
20260508052017 52 90 2.0 4.0 0.00 0.00 0.00 91 1015.3
20260508051017 51 90 2.0 3.0 0.00 0.00 0.00 91 1015.3
20260508050017 51 90 1.0 4.0 0.00 0.00 0.00 90 1015.4
20260508045017 51 90 1.0 3.0 0.00 0.00 0.00 90 1015.2
20260508044018 51 90 2.0 4.0 0.00 0.00 0.00 90 1015.2
20260508043017 51 90 2.0 4.0 0.00 0.00 0.00 90 1015.2
20260508042017 51 90 1.0 4.0 0.00 0.00 0.00 90 1015.1
20260508041017 51 90 2.0 5.0 0.00 0.00 0.00 90 1015.2
20260508040017 51 90 2.0 4.0 0.00 0.00 0.00 90 1015.2
20260508035017 51 68 1.0 3.0 0.00 0.00 0.00 90 1015.1
20260508034037 51 68 1.0 4.0 0.00 0.00 0.00 89 1015.1
20260508033017 51 0.0 2.0 0.00 0.00 0.00 90 1015.1
20260508032037 51 90 1.0 4.0 0.00 0.00 0.00 89 1015.2
20260508031016 51 113 1.0 3.0 0.00 0.00 0.00 89 1015.1
20260508030038 51 0.0 0.0 0.00 0.00 0.00 89 1015.2
20260508025016 50 113 1.0 3.0 0.00 0.00 0.00 89 1015.2
20260508024017 50 90 1.0 4.0 0.00 0.00 0.00 89 1015.2
20260508023017 50 90 1.0 3.0 0.00 0.00 0.00 89 1015.2
20260508022017 50 90 2.0 4.0 0.00 0.00 0.00 89 1015.2
20260508021018 50 90 2.0 6.0 0.00 0.00 0.00 89 1015.2
20260508020018 50 90 1.0 4.0 0.00 0.00 0.00 89 1015.2
20260508015017 49 90 1.0 3.0 0.00 0.00 0.00 89 1015.3
20260508014018 49 90 1.0 4.0 0.00 0.00 0.00 89 1015.4
20260508013016 49 113 2.0 4.0 0.00 0.00 0.00 89 1015.3
20260508012018 49 68 1.0 4.0 0.00 0.00 0.00 89 1015.5
20260508011017 49 90 1.0 3.0 0.00 0.00 0.00 89 1015.5
20260508010016 49 90 1.0 4.0 0.00 0.00 0.00 89 1015.5
20260508005016 49 90 1.0 4.0 0.00 0.00 0.00 89 1015.5
20260508004036 48 90 2.0 5.0 0.00 0.00 0.00 90 1015.5
20260508003037 48 90 2.0 6.0 0.00 0.00 0.00 90 1015.5
20260508002036 48 90 1.0 3.0 0.00 0.00 0.00 90 1015.6
20260508001016 48 0.0 2.0 0.00 0.00 0.00 90 1015.7
20260508000018 48 45 1.0 4.0 0.00 0.00 0.00 89 1015.8
20260507235038 48 0.0 2.0 0.00 0.00 0.00 89 1015.8
20260507234039 48 0.0 2.0 0.00 0.00 0.00 89 1015.9
20260507233018 48 68 1.0 3.0 0.00 0.00 0.00 88 1015.9
20260507232016 48 68 1.0 3.0 0.00 0.00 0.00 88 1016.0
20260507231016 48 0.0 1.0 0.00 0.00 0.00 88 1016.1
20260507230018 48 0.0 1.0 0.00 0.00 0.00 87 1016.0
20260507225119 48 0.0 0.0 0.00 0.00 0.00 87 1016.0
20260507224018 48 0.0 0.0 0.00 0.00 0.00 86 1015.9
20260507223016 48 0.0 2.0 0.00 0.00 0.00 86 1016.0
20260507222016 48 0.0 1.0 0.00 0.00 0.00 86 1016.1
20260507221038 49 0.0 0.0 0.00 0.00 0.00 86 1016.1
20260507220036 49 0.0 0.0 0.00 0.00 0.00 86 1016.2
20260507215016 49 0.0 2.0 0.00 0.00 0.00 86 1016.1
20260507214016 49 90 1.0 3.0 0.00 0.00 0.00 86 1016.2
20260507213016 49 0.0 0.0 0.00 0.00 0.00 85 1016.3
20260507212016 49 0.0 0.0 0.00 0.00 0.00 84 1016.2
20260507211016 49 0.0 0.0 0.00 0.00 0.00 83 1016.3
20260507210018 50 0.0 0.0 0.00 0.00 0.00 83 1016.4
20260507205017 50 0.0 0.0 0.00 0.00 0.00 82 1016.5
20260507204016 51 0.0 0.0 0.00 0.00 0.00 82 1016.4
20260507203016 52 0.0 0.0 0.00 0.00 0.00 80 1016.3
20260507202018 52 0.0 0.0 0.00 0.00 0.00 80 1016.2
20260507201017 53 0.0 0.0 0.00 0.00 0.00 80 1016.1
20260507200016 53 0.0 0.0 0.00 0.00 0.00 80 1015.9
20260507195016 53 0.0 0.0 0.00 0.00 0.00 79 1015.8
20260507194016 54 0.0 0.0 0.00 0.00 0.00 78 1015.7
20260507193016 54 0.0 0.0 0.00 0.00 0.00 77 1015.5
20260507192017 55 135 1.0 2.0 0.00 0.00 0.00 76 1015.5
20260507191017 55 113 1.0 3.0 0.00 0.00 0.00 75 1015.3
20260507190016 56 135 2.0 3.0 0.00 0.00 0.00 74 1015.3
20260507185016 56 90 2.0 4.0 0.00 0.00 0.00 74 1015.2
20260507184017 56 113 2.0 4.0 0.00 0.00 0.00 74 1015.2
20260507183016 57 113 3.0 5.0 0.00 0.00 0.00 73 1015.2
20260507182015 57 113 2.0 7.0 0.00 0.00 0.00 72 1015.2
20260507181016 57 113 3.0 7.0 0.00 0.00 0.00 71 1015.2
20260507180015 58 135 3.0 6.0 0.00 0.00 0.00 70 1015.2
20260507175016 58 135 3.0 6.0 0.00 0.00 0.00 70 1015.2
20260507174018 58 135 4.0 10.0 0.00 0.00 0.00 68 1015.1
20260507173016 59 135 3.0 8.0 0.00 0.00 0.00 67 1015.1
20260507172017 59 135 3.0 7.0 0.00 0.00 0.00 67 1015.2
20260507171015 59 135 3.0 8.0 0.00 0.00 0.00 66 1015.3
20260507170037 59 158 3.0 6.0 0.00 0.00 0.00 66 1015.4
20260507165016 60 158 3.0 7.0 0.00 0.00 0.00 65 1015.4
20260507164038 60 135 2.0 8.0 0.00 0.00 0.00 61 1015.4
20260507163017 61 135 3.0 8.0 0.00 0.00 0.00 61 1015.4
20260507162015 61 135 4.0 8.0 0.00 0.00 0.00 64 1015.3
20260507161017 61 158 4.0 9.0 0.00 0.00 0.00 65 1015.4
20260507160016 61 158 5.0 11.0 0.00 0.00 0.00 65 1015.5
20260507155017 61 180 6.0 11.0 0.00 0.00 0.00 65 1015.4
20260507154037 61 203 5.0 10.0 0.00 0.00 0.00 66 1015.4
20260507153015 61 225 5.0 9.0 0.00 0.00 0.00 65 1015.5
20260507152015 61 203 4.0 9.0 0.00 0.00 0.00 65 1015.6
20260507151015 62 180 3.0 9.0 0.00 0.00 0.00 63 1015.6
20260507150037 62 225 5.0 10.0 0.00 0.00 0.00 66 1015.8
20260507145017 61 180 4.0 9.0 0.00 0.00 0.00 66 1015.7
20260507144041 61 180 5.0 9.0 0.00 0.00 0.00 65 1015.7
20260507143017 61 180 4.0 11.0 0.00 0.00 0.00 64 1015.8
20260507142018 60 180 4.0 8.0 0.00 0.00 0.00 68 1015.8
20260507141017 60 158 4.0 13.0 0.00 0.00 0.00 66 1015.9
20260507140019 61 180 4.0 9.0 0.00 0.00 0.00 66 1016.0
20260507135041 61 180 5.0 11.0 0.00 0.00 0.00 66 1016.0
20260507134017 60 180 4.0 11.0 0.00 0.00 0.00 68 1015.9
20260507133017 59 180 6.0 13.0 0.00 0.00 0.00 71 1015.9
20260507132019 58 203 4.0 8.0 0.00 0.00 0.00 71 1016.0
20260507131017 58 180 4.0 11.0 0.00 0.00 0.00 72 1016.0
20260507130017 58 180 3.0 8.0 0.00 0.00 0.00 71 1016.1
20260507125017 58 180 5.0 10.0 0.00 0.00 0.00 70 1016.1
20260507124017 58 225 6.0 10.0 0.00 0.00 0.00 68 1016.1
20260507123019 59 225 5.0 11.0 0.00 0.00 0.00 67 1016.1
20260507122017 59 203 6.0 11.0 0.00 0.00 0.00 68 1016.1
20260507121017 60 203 6.0 12.0 0.00 0.00 0.00 66 1016.1
20260507120018 61 180 4.0 9.0 0.00 0.00 0.00 65 1016.0
20260507115017 61 158 6.0 12.0 0.00 0.00 0.00 65 1016.0
20260507114039 61 158 5.0 15.0 0.00 0.00 0.00 64 1016.1
20260507113037 62 158 6.0 12.0 0.00 0.00 0.00 63 1016.1
20260507112018 63 180 6.0 13.0 0.00 0.00 0.00 62 1016.1
20260507111017 62 158 4.0 9.0 0.00 0.00 0.00 62 1016.0
20260507110017 62 135 5.0 11.0 0.00 0.00 0.00 62 1016.0
20260507105017 62 158 5.0 9.0 0.00 0.00 0.00 61 1016.0
20260507104017 62 135 6.0 10.0 0.00 0.00 0.00 64 1016.1
20260507103037 61 135 5.0 11.0 0.00 0.00 0.00 61 1016.3
20260507102017 61 135 5.0 9.0 0.00 0.00 0.00 63 1016.3
20260507101017 61 158 4.0 10.0 0.00 0.00 0.00 64 1016.3
20260507100017 61 113 6.0 11.0 0.00 0.00 0.00 64 1016.3
20260507095017 62 135 5.0 14.0 0.00 0.00 0.00 62 1016.2
20260507094017 62 135 6.0 13.0 0.00 0.00 0.00 63 1016.3